Letecké školy

Flying Academy USA

Flying Academy USA

Miami, Florida        Aktuální teplota 24 °C

Flying Academy ČR

Flying Academy ČR

Praha & Brno, Česká Republika        Aktuální teplota 0 °C

Letecká škola Flying Academy

Letecká škola Flying Academy má více než 12 let zkušeností s výcvikem profesionálních pilotů v Evropě a přes 30 let v USA. Jsme jednou z nejdynamičtěji rostoucích leteckých škol poskytujících vysoký standard leteckého výcviku v prostředí simulujícím atmosféru v aeroliniích.

  • Flying Academy je EASA certifikovaná výcviková organizace (CZ/ATO-014) a FAA certifikovaná letecká škola podle Part 141 & 61, působíme v České Republice a v USA
  • Naši instruktoři jsou současně i piloty aerolinií – získáte reálné zkušenosti pilota
  • Dostanete zdarma iPad mini při zahájení ab-initio výcvikového programu
  • Naše výcvikové kurzy jsou navrženy pro budoucí EASA a FAA soukromé a komerční piloty

Vítejte ve světě, kde práce je náš koníček! Každý v našem týmu ve Flying Academy se těší z úspěchů našich studentů. Diky skvělému zázemí, přístupu a nabídce naší letecké školy se ujistíte, že jste na správném místě k dosažení Vašich snů ve Flying Academy.

Proč si vybrat Flying Academy - přečtěte si více >>

 

Novinky

Flying Academy pořádá udržovací seminář FI, IRI v Brně

Letecká škola Flying Academy pořádá udržovací seminář letového instruktora (FI) a instruktora přístrojové kvalifikace (IRI) nutný pro prodloužení těchto kvalifikací. Seminář je dvoudenní a bude se konat 25. a 26. února od 9 do 16 hodin v prostorách letecké školy v Brně - Tuřanech. Poplatek za seminář činí 4000 Kč plus DPH.

 

Obsah udržovacího semináře FI a IRI

V Udržovacím semináři budou probírány: Stávající a nové předpisy, výuka a sebevzdělávání, techniky výuky, role instruktora, bezpečnost v letectví, prevence incidentů a nehod, letecké umění, právní aspekty a postupy vymáhání, dovednost v navigaci, výuka létání podle přístrojů. Podrobnější program bude stanoven před zahájením kurzu.

Po ukončení semináře vám bude kurz zapsán do logbooku. Seminář je v souladu s předpisem AMC 1 FCL.940.FI(a)(2)FI a mohou se ho účastnit i instruktoři z jiných leteckých škol.

 

celý článek >>

Připravte se na kariéru dopravního pilota v kurzu ATPL-650 v Praze a Brně

Sníte o kariéře profesionálního pilota, ale nevíte jak začít? Flying Academy nabízí možnost profesionálního vzdělání v oblasti teorie ATPL-650, která je pro kariéru pilota aerolinií naprosto nezbytná. Kurzy ATPL teorie - 650 se budou konat od 12.11.2016 v Praze a od 19.11.2016 v Brně.  

 

 

celý článek >>

Zdokonalte si ICAO leteckou angličtinu v intenzivním kurzu v Praze a Brně

Chcete si zdokonalit svoji ICAO leteckou angličtinu či se připravit na zkoušku? Flying Academy nabízí možnost 24 hodinového intenzivního kurzu letecké angličtiny v Brně a v Praze. Tento zdokonalovací intenzivní kurz začíná již 12. 11. 2016 a 10.12. 2016 v Brně i Praze . Pro zájemce bude možnost absolvovat na konci kurzu zkoušku z ICAO angličtiny za cenu 2790,-kč + 21% DPH.

celý článek >>

více článků

Blog

Zahraniční letecká zkušenost, kterou získáte jen s Flying Academy v Miami

Díky otevření nové pobočky Flying Academy v Miami ve Spojených státech dostalo mnoho studentů, kteří dosud znali jen evropský vzdušný prostor, příležitost vyzkoušet si výcvik dle předpisů FAA v americkém vzdušném prostoru. Díky výhodným balíčkům Time Buildingu, které Flying Academy nabízí, se pilotům s evropskou licencí veškerý nálet v Americe započítá po jejich návratu do České republiky.

Student Abdollah Mohammadpour, který se zúčastnil výcviku 0-ATPL, vysvětluje, jak tato zkušenost změnila celý jeho pohled na letecký výcvik: "Jako student, pilot se zkušenostmi pouze v neřízeném vzdušném prostoru s malým provozem, jsem se rozhodl využít příležitosti od Flying Academy a rozšířit své znalosti v USA. Po příletu do Miami na mě čekal řidič od Flying Academy, který mě odvezl do vily. Vila se nacházela jen pár minut jízdy od letiště a měla na zahradě i velký bazén. Personál Flying Academy mi se vším pomáhal stejně jako v Praze."

pokračovat ve čtení >>

více článků

0 - 500 hodin

Flying Academy s.r.o.
Beranových 130
Praha 9 - Letnany
199 00

800 884 888

+420 228 882 444

www.flyingacademy.cz
pilot@FlyingAcademy.cz

facebook.com/FlyingAcademy
twitter.com/FlyingAcademy
youtube.com/FlyingAcademy

Aktuální počasí

LKTB

LKTB 270130Z 01004KT CAVOK M01/M03 Q1016 NOSIG

LKPR

LKPR 270130Z 22013KT CAVOK 06/M02 Q1013 NOSIG

LKKV

LKKV 270100Z VRB01KT CAVOK M00/M02 Q1013

KTMB

KTMB 270053Z 06012KT 10SM CLR 24/18 A3013 RMK AO2 SLP202 T02440183

Začněte program 0-1500 a získejte 1500 letových hodin s Flying Academy Získejte více informací